Location: Aranbee
(34.0885°N, 118.2342°W)
Time: 22:58:13
(UTC+00:00)

Tiros 1 - Pass Details

Date: 01 December 2020
Orbit: 630 x 663 km, 48.4° (Epoch: 20 January)

Event Time Altitude Azimuth Distance (km) Brightness Sun altitude
Rises 22:25:49 0° 256° (WSW) 2,984 11.4 21.8°
Reaches altitude 10° 22:28:20 10° 265° (W) 2,075 10.6 21.4°
Maximum altitude 22:32:43 35° 331° (NNW) 1,065 8.3 20.8°
Drops below altitude 10° 22:37:08 10° 38° (NE) 2,077 9.2 20.2°
Sets 22:39:40 0° 47° (NE) 2,988 10.0 19.8°
